Weather History for Fosston, MN

Change the Weather History Date:

Tuesday, December 4, 2012

  Actual Average Record
Temperature  
Mean Temperature 12 °F -  
Max Temperature 19 °F 26 °F 48 °F (1975)
Min Temperature 6 °F 8 °F -25 °F (1991)
Degree Days  
Heating Degree Days 52    
Moisture  
Dew Point 6 °F    
Average Humidity 78    
Maximum Humidity 92    
Minimum Humidity 63    
Precipitation  
Precipitation 0.00 in - - ()
Sea Level Pressure  
Sea Level Pressure 30.19 in    
Wind  
Wind Speed 12 mph (WNW)    
Max Wind Speed 21 mph    
Max Gust Speed 28 mph    
Visibility 10 miles    
Events Snow    
Averages and records for this station are not official NWS values.
T = Trace of Precipitation, MM = Missing Value Source: NWS Daily Summary

Daily Weather History Graph

Daily Weather History Graph

Search for Another Location

Airport:

Trip Planner

Search our weather history database for the weather conditions in past years. The results will help you decide how hot, cold, wet, or windy it might be!

Date:

Astronomy

Dec. 04, 2012 Rise Set
Actual Time 7:54 AM CST 4:32 PM CST
Civil Twilight 7:19 AM CST 5:07 PM CST
Nautical Twilight 6:40 AM CST 5:46 PM CST
Astronomical Twilight 6:02 AM CST 6:23 PM CST
Moon 10:37 PM CST (12/4) 11:34 AM CST (12/4)
Length of Visible Light 9h 48m
Length of Day
8h 37m
Waning Gibbous, 69% of the Moon is Illuminated
Dec 4
Waning Gibbous
Dec 6
Last Quarter
Dec 13
New
Dec 19
First Quarter
Dec 28
Full

Hourly Weather History & Observations

Time (CST) Temp. Windchill Dew Point Humidity Pressure Visibility Wind Dir Wind Speed Gust Speed Precip Events Conditions
12:15 AM 15.8 °F -1.1 °F 8.6 °F 73% 29.90 in 10.0 mi West 19.6 mph 27.6 mph N/A   Clear
12:35 AM 14.0 °F -3.0 °F 8.6 °F 79% 29.90 in 10.0 mi West 18.4 mph 23.0 mph N/A   Clear
12:39 AM 14.0 °F -2.0 °F 8.6 °F 79% 29.90 in 10.0 mi West 16.1 mph 23.0 mph N/A   Clear
1:01 AM 14.0 °F -1.4 °F 8.6 °F 79% 29.92 in 10.0 mi West 15.0 mph - N/A   Scattered Clouds
1:29 AM 14.0 °F -3.9 °F 8.6 °F 79% 29.93 in 10.0 mi West 20.7 mph 25.3 mph N/A   Mostly Cloudy
1:35 AM 14.0 °F -3.9 °F 8.6 °F 79% 29.93 in 10.0 mi West 20.7 mph 25.3 mph N/A   Mostly Cloudy
1:56 AM 12.2 °F -4.3 °F 8.6 °F 85% 29.94 in 7.0 mi WNW 16.1 mph - N/A Snow Light Snow
2:15 AM 12.2 °F -5.8 °F 6.8 °F 79% 29.95 in 10.0 mi WNW 19.6 mph 27.6 mph N/A   Mostly Cloudy
2:56 AM 10.4 °F -5.4 °F 3.2 °F 73% 29.99 in 10.0 mi West 13.8 mph 19.6 mph N/A   Clear
3:15 AM 10.4 °F -7.2 °F 3.2 °F 73% 29.99 in 10.0 mi West 17.3 mph 20.7 mph N/A   Clear
3:36 AM 10.4 °F -4.1 °F 3.2 °F 73% 30.01 in 10.0 mi WNW 11.5 mph - N/A   Scattered Clouds
3:55 AM 10.4 °F -4.1 °F 3.2 °F 73% 30.00 in 10.0 mi West 11.5 mph 17.3 mph N/A   Mostly Cloudy
4:15 AM 10.4 °F -5.4 °F 3.2 °F 73% 30.01 in 10.0 mi WNW 13.8 mph - N/A   Overcast
4:36 AM 10.4 °F -5.4 °F 3.2 °F 73% 30.01 in 10.0 mi WNW 13.8 mph 20.7 mph N/A   Overcast
4:55 AM 10.4 °F -4.8 °F 3.2 °F 73% 30.03 in 10.0 mi WNW 12.7 mph - N/A   Overcast
5:15 AM 10.4 °F -6.6 °F 3.2 °F 73% 30.05 in 10.0 mi WNW 16.1 mph 20.7 mph N/A   Overcast
5:36 AM 10.4 °F -4.1 °F 3.2 °F 73% 30.05 in 10.0 mi WNW 11.5 mph 16.1 mph N/A   Overcast
5:55 AM 10.4 °F -2.4 °F 3.2 °F 73% 30.06 in 10.0 mi WNW 9.2 mph - N/A   Overcast
6:15 AM 10.4 °F -4.8 °F 3.2 °F 73% 30.07 in 10.0 mi WNW 12.7 mph - N/A   Overcast
6:36 AM 8.6 °F -4.7 °F 3.2 °F 79% 30.08 in 10.0 mi WNW 9.2 mph - N/A Snow Light Snow
6:55 AM 8.6 °F -5.5 °F 3.2 °F 79% 30.10 in 10.0 mi WNW 10.4 mph - N/A   Scattered Clouds
7:15 AM 8.6 °F -4.7 °F 3.2 °F 79% 30.11 in 10.0 mi WNW 9.2 mph - N/A   Scattered Clouds
7:36 AM 8.6 °F -4.7 °F 3.2 °F 79% 30.12 in 10.0 mi WNW 9.2 mph - N/A   Mostly Cloudy
7:55 AM 8.6 °F -6.3 °F 3.2 °F 79% 30.13 in 10.0 mi WNW 11.5 mph - N/A   Clear
8:15 AM 8.6 °F -4.7 °F 3.2 °F 79% 30.14 in 10.0 mi WNW 9.2 mph - N/A   Clear
8:36 AM 8.6 °F -7.7 °F 3.2 °F 79% 30.16 in 10.0 mi WNW 13.8 mph 18.4 mph N/A   Clear
8:55 AM 10.4 °F -4.8 °F 3.2 °F 73% 30.16 in 10.0 mi WNW 12.7 mph 20.7 mph N/A   Clear
9:15 AM 10.4 °F -5.4 °F 3.2 °F 73% 30.17 in 10.0 mi WNW 13.8 mph - N/A   Scattered Clouds
9:35 AM 10.4 °F -5.4 °F 3.2 °F 73% 30.18 in 10.0 mi WNW 13.8 mph 19.6 mph N/A   Scattered Clouds
9:55 AM 12.2 °F -2.5 °F 5.0 °F 73% 30.19 in 10.0 mi WNW 12.7 mph 18.4 mph N/A   Scattered Clouds
10:15 AM 12.2 °F -2.5 °F 5.0 °F 73% 30.20 in 10.0 mi WNW 12.7 mph - N/A   Scattered Clouds
10:35 AM 12.2 °F -3.1 °F 6.8 °F 79% 30.22 in 10.0 mi WNW 13.8 mph 19.6 mph N/A   Mostly Cloudy
10:56 AM 14.0 °F -0.2 °F 6.8 °F 73% 30.22 in 10.0 mi WNW 12.7 mph 17.3 mph N/A   Scattered Clouds
11:15 AM 15.8 °F 2.1 °F 6.8 °F 68% 30.22 in 10.0 mi NW 12.7 mph 18.4 mph N/A   Scattered Clouds
11:35 AM 15.8 °F 1.4 °F 6.8 °F 68% 30.23 in 10.0 mi West 13.8 mph 17.3 mph N/A   Clear
12:15 PM 15.8 °F 1.4 °F 6.8 °F 68% 30.24 in 10.0 mi West 13.8 mph 19.6 mph N/A   Clear
12:35 PM 17.6 °F 5.0 °F 8.6 °F 68% 30.24 in 10.0 mi West 11.5 mph - N/A   Clear
12:55 PM 17.6 °F 4.3 °F 8.6 °F 68% 30.25 in 10.0 mi WNW 12.7 mph - N/A   Clear
1:15 PM 19.4 °F 7.9 °F 8.6 °F 63% 30.24 in 10.0 mi WNW 10.4 mph 17.3 mph N/A   Clear
1:35 PM 19.4 °F 8.6 °F 8.6 °F 63% 30.24 in 10.0 mi WNW 9.2 mph - N/A   Clear
1:55 PM 19.4 °F 8.6 °F 10.4 °F 68% 30.24 in 10.0 mi NW 9.2 mph - N/A   Clear
2:15 PM 19.4 °F 6.6 °F 10.4 °F 68% 30.24 in 10.0 mi NW 12.7 mph 16.1 mph N/A   Clear
2:36 PM 19.4 °F 7.9 °F 10.4 °F 68% 30.25 in 10.0 mi NNW 10.4 mph - N/A   Clear
2:55 PM 19.4 °F 7.9 °F 10.4 °F 68% 30.26 in 10.0 mi WNW 10.4 mph - N/A   Clear
3:15 PM 19.4 °F 9.5 °F 10.4 °F 68% 30.27 in 10.0 mi WNW 8.1 mph - N/A   Clear
3:35 PM 19.4 °F 9.5 °F 10.4 °F 68% 30.28 in 10.0 mi NW 8.1 mph - N/A   Clear
3:55 PM 19.4 °F 9.5 °F 10.4 °F 68% 30.29 in 10.0 mi NW 8.1 mph - N/A   Clear
4:15 PM 17.6 °F 10.7 °F 8.6 °F 68% 30.30 in 10.0 mi WNW 4.6 mph - N/A   Clear
4:35 PM 14.0 °F - 8.6 °F 79% 30.30 in 10.0 mi Calm Calm - N/A   Clear
4:55 PM 12.2 °F 2.9 °F 8.6 °F 85% 30.31 in 10.0 mi WNW 5.8 mph - N/A   Clear
5:15 PM 12.2 °F - 8.6 °F 85% 30.32 in 10.0 mi Calm Calm - N/A   Clear
5:35 PM 10.4 °F - 8.6 °F 92% 30.33 in 10.0 mi Calm Calm - N/A   Clear
5:56 PM 10.4 °F - 8.6 °F 92% 30.32 in 10.0 mi Calm Calm - N/A   Clear
6:15 PM 10.4 °F - 6.8 °F 85% 30.32 in 10.0 mi Calm Calm - N/A   Clear
6:35 PM 8.6 °F - 6.8 °F 92% 30.32 in 10.0 mi Calm Calm - N/A   Clear
6:56 PM 8.6 °F - 6.8 °F 92% 30.32 in 10.0 mi Calm Calm - N/A   Clear
7:15 PM 8.6 °F - 6.8 °F 92% 30.33 in 10.0 mi Calm Calm - N/A   Clear
7:35 PM 8.6 °F - 5.0 °F 85% 30.32 in 10.0 mi Calm Calm - N/A   Clear
7:55 PM 8.6 °F - 6.8 °F 92% 30.32 in 10.0 mi Calm Calm - N/A   Clear
8:15 PM 8.6 °F - 6.8 °F 92% 30.33 in 10.0 mi Calm Calm - N/A   Clear
8:35 PM 8.6 °F - 6.8 °F 92% 30.33 in 10.0 mi Calm Calm - N/A   Clear
8:55 PM 8.6 °F - 5.0 °F 85% 30.34 in 10.0 mi Calm Calm - N/A   Clear
9:15 PM 8.6 °F - 6.8 °F 92% 30.35 in 10.0 mi Calm Calm - N/A   Clear
9:35 PM 8.6 °F - 5.0 °F 85% 30.35 in 10.0 mi Calm Calm - N/A   Clear
9:55 PM 8.6 °F - 5.0 °F 85% 30.34 in 10.0 mi Calm Calm - N/A   Clear
10:15 PM 6.8 °F - 3.2 °F 85% 30.36 in 10.0 mi Calm Calm - N/A   Clear
10:35 PM 6.8 °F - 3.2 °F 85% 30.36 in 10.0 mi Calm Calm - N/A   Clear
10:55 PM 6.8 °F - 3.2 °F 85% 30.36 in 10.0 mi Calm Calm - N/A   Clear
11:15 PM 6.8 °F - 3.2 °F 85% 30.36 in 10.0 mi Calm Calm - N/A   Clear
11:35 PM 6.8 °F - 3.2 °F 85% 30.36 in 10.0 mi Calm Calm - N/A   Clear
11:55 PM 6.8 °F - 3.2 °F 85% 30.35 in 10.0 mi Calm Calm - N/A   Clear